Theta_e
300 300 300 300 301 300 301 302 302 301 302 297 294 296 290 289 286 296 299 302 299 292 285 287 284 283 287 291 290 291 286 286 289 289 292 289 292 289 287 287 286 286 284 288 287 288 283 286 284 284 286 287 288 289 292 293 291 291 287 289 290 296 284 281 282 284 284 288 289 290 291 289 286 287 285 285 285 283 281 278 279 279 281 280 279 277 275
300 300 300 300 301 301 301 301 302 302 302 298 297 292 289 289 289 291 297 300 299 290 280 280 282 285 287 288 288 293 289 288 288 289 290 289 289 288 288 284 290 285 290 288 285 290 280 288 287 286 289 288 292 291 291 293 289 289 287 286 294 284 283 282 279 278 281 284 286 287 288 288 283 282 284 286 286 287 285 283 281 281 280 280 278 275 277
300 299 300 300 300 301 301 301 301 302 302 301 296 290 291 290 292 291 293 296 293 284 286 283 283 284 284 285 285 288 290 291 292 291 289 292 292 288 286 286 289 289 289 286 288 291 287 284 290 292 290 290 294 291 291 293 291 293 296 303 295 287 284 282 276 275 273 274 277 279 281 283 284 286 284 285 287 285 284 283 277 279 281 281 277 273 280
300 300 300 300 300 300 301 300 301 301 302 302 296 292 290 283 280 286 287 288 288 287 289 288 286 283 284 282 285 289 286 292 294 292 291 294 291 291 287 289 291 290 284 286 285 290 292 288 287 292 291 292 293 291 291 292 292 297 299 301 295 287 286 282 280 280 277 277 279 282 283 282 282 284 284 286 286 286 286 281 277 278 278 279 279 285 288
299 299 299 300 300 300 300 301 301 301 301 302 295 292 288 287 282 283 281 287 287 284 286 286 286 282 286 281 287 285 287 289 290 296 289 293 290 290 291 291 289 290 288 284 285 291 291 293 292 291 292 293 295 298 292 292 294 299 300 300 291 287 284 284 283 284 284 283 285 286 287 284 283 284 284 283 285 285 284 281 280 282 282 279 281 288 292
299 299 299 299 300 300 301 301 301 301 301 302 295 285 287 281 285 289 289 283 281 282 284 287 284 286 287 286 289 286 285 287 285 291 293 292 293 286 288 290 290 290 289 288 283 288 289 290 286 292 293 292 294 291 292 291 298 303 293 298 291 286 280 286 285 285 287 286 287 287 287 286 285 284 284 284 284 285 284 282 282 285 281 277 285 289 292
299 299 299 299 299 300 300 301 301 301 300 300 293 287 290 289 288 288 291 283 286 285 286 286 285 284 287 287 288 285 285 285 288 288 288 288 288 291 284 286 288 290 292 289 286 288 283 283 289 290 290 290 290 289 289 292 293 294 291 291 291 284 282 287 286 286 287 288 287 287 287 286 286 285 285 285 285 285 284 284 284 285 285 282 290 291 292
300 299 299 299 299 299 299 300 300 301 300 298 293 290 286 284 283 283 289 288 286 286 286 285 284 282 288 284 286 286 286 285 287 290 289 284 285 289 287 288 290 291 292 291 286 289 290 290 285 291 290 289 291 290 290 290 294 292 290 292 290 287 282 291 285 281 285 287 287 286 287 286 284 284 285 284 284 285 286 286 286 290 290 289 291 292 293
300 299 298 298 299 299 299 300 301 300 300 293 291 290 292 291 292 291 285 282 285 288 286 284 284 283 286 284 286 286 287 286 289 288 293 290 287 289 288 290 291 292 290 290 291 294 294 292 292 293 293 287 292 289 289 296 291 292 287 288 290 288 284 286 283 280 282 285 286 285 285 286 284 283 284 284 284 285 286 286 288 287 290 291 293 292 291
300 299 298 298 299 300 299 300 300 300 300 294 292 288 294 293 295 294 289 282 288 284 287 286 286 283 286 287 286 285 286 288 290 285 293 293 293 292 291 291 291 290 289 288 291 294 295 295 296 296 296 296 295 296 296 296 293 290 286 288 287 285 282 281 281 281 279 285 286 285 285 285 282 280 283 285 284 285 286 287 289 289 295 291 288 292 295
300 299 299 298 298 299 299 300 300 300 298 292 290 290 292 289 288 290 290 282 284 286 285 284 284 286 287 288 286 288 287 289 290 285 286 293 294 298 296 293 291 288 287 291 297 299 299 300 299 298 295 295 295 295 295 296 297 294 290 286 285 287 285 283 283 280 281 284 285 285 283 274 275 283 286 288 287 286 286 286 288 292 293 292 294 295 303
300 300 299 298 299 298 299 299 300 300 299 296 296 292 294 295 293 291 286 281 282 285 284 282 284 286 285 287 288 287 286 287 288 291 288 291 294 297 296 294 292 286 292 298 301 301 302 302 300 298 296 296 296 296 296 294 295 296 294 290 287 285 283 283 282 281 281 282 283 282 273 274 284 287 291 291 292 288 289 288 289 291 293 296 300 304 306
300 300 299 299 299 299 298 298 300 300 300 297 296 291 295 297 292 289 287 284 281 283 282 284 287 287 288 287 286 286 288 289 291 292 292 292 293 296 299 295 293 295 301 301 301 299 291 289 290 291 292 293 294 295 293 292 293 293 291 292 289 285 284 283 282 280 280 279 275 274 273 283 288 290 292 294 291 290 290 288 290 291 292 294 297 305 308
301 300 299 299 298 298 298 299 299 300 300 299 294 293 295 296 291 289 287 283 282 286 286 284 287 286 286 286 286 287 288 289 291 293 290 294 292 294 297 301 301 303 302 302 298 293 286 285 283 284 285 286 285 286 291 292 292 292 292 291 292 290 285 283 282 282 279 276 274 277 282 286 287 288 292 291 290 290 287 283 288 294 294 293 296 301 304
301 301 300 299 298 298 298 298 299 299 300 300 295 293 295 296 295 291 292 288 282 285 286 282 285 285 286 286 287 285 287 287 287 288 292 294 294 297 297 301 303 301 303 298 292 288 284 281 283 282 282 280 276 281 288 288 290 293 293 292 291 290 286 285 283 281 279 279 276 275 274 273 281 287 291 294 294 294 291 288 284 290 293 294 299 303 304
302 301 300 299 298 298 298 298 299 299 299 299 296 294 295 297 297 296 291 287 285 280 285 288 289 287 285 286 287 286 286 286 287 289 288 290 292 295 298 300 299 302 303 299 291 284 282 281 280 278 279 279 284 284 282 287 285 290 291 291 291 289 288 285 284 280 278 277 275 274 273 278 281 286 291 294 294 294 291 284 281 287 291 295 301 304 305
302 301 301 300 299 298 298 298 299 299 299 299 295 293 292 296 296 293 290 289 287 283 290 291 290 288 286 286 288 286 288 286 288 285 284 286 289 292 295 297 299 301 298 290 287 283 283 282 278 280 281 285 280 281 284 282 281 283 288 288 288 287 283 284 283 279 277 274 275 278 276 283 291 291 293 295 295 293 288 280 276 288 293 296 301 305 305
302 302 301 300 299 298 298 298 299 298 298 299 297 292 291 295 297 296 292 289 285 285 289 292 290 286 285 287 285 289 291 290 290 291 287 289 289 290 292 294 294 299 298 286 285 282 281 281 281 279 279 286 289 286 277 284 280 279 282 282 281 281 282 282 280 278 278 277 276 276 280 287 291 293 296 294 295 288 280 275 283 288 293 296 299 305 305
302 302 301 300 299 299 298 298 298 299 299 299 297 295 292 293 296 296 293 289 287 283 290 295 294 290 291 293 290 291 291 290 290 286 286 285 286 292 293 294 296 290 296 286 285 282 281 281 283 282 280 281 285 281 286 280 282 284 283 281 282 280 279 281 280 280 280 276 276 277 277 284 291 297 296 294 292 280 276 286 290 295 298 298 299 305 305
302 302 301 300 300 299 298 298 298 298 298 299 297 292 293 294 295 295 291 286 287 285 288 289 291 289 292 289 288 287 288 290 291 288 286 284 290 292 291 288 293 296 292 292 285 287 283 281 283 285 280 281 283 289 279 280 286 285 283 282 279 282 281 280 279 279 278 272 273 277 278 287 297 297 292 292 286 282 285 291 298 297 299 299 300 305 306
302 301 301 300 300 300 299 298 298 298 298 298 298 293 291 293 293 294 295 292 287 282 285 294 294 292 293 292 292 293 291 288 289 287 289 289 292 289 284 286 290 292 290 290 286 284 286 283 283 284 286 285 284 285 281 280 281 288 289 284 284 286 281 280 278 279 277 275 275 279 282 288 294 293 287 293 292 293 292 296 297 300 299 300 299 301 306
301 301 301 301 301 300 299 298 298 298 298 298 298 295 291 294 295 295 296 294 288 285 287 292 293 292 293 295 295 295 294 294 295 295 291 287 287 289 289 292 293 296 296 295 288 289 292 290 287 282 282 284 285 283 285 277 276 284 287 286 281 287 285 282 282 285 280 280 278 285 287 292 295 295 296 296 301 297 296 297 300 300 302 300 299 302 303
301 301 301 301 300 300 299 299 298 298 298 299 297 293 291 293 294 297 294 289 291 292 293 292 293 294 296 296 297 297 297 298 297 296 295 290 285 285 289 290 290 296 299 299 294 292 292 292 287 288 285 286 287 282 282 282 279 283 283 289 287 292 291 288 290 290 290 291 291 293 294 297 298 297 299 300 301 300 298 298 300 300 300 300 304 303 302
301 301 301 301 301 300 300 299 299 298 298 298 297 294 293 294 295 294 291 290 287 285 290 293 290 285 290 294 297 299 297 297 297 297 299 297 286 284 289 294 296 293 291 296 299 295 292 291 290 289 285 289 287 279 281 282 282 287 284 284 288 290 291 286 286 289 287 286 289 294 297 295 296 297 299 299 299 300 299 300 300 302 301 302 302 302 299
301 301 301 301 301 301 300 299 299 298 298 298 297 297 296 294 295 293 289 283 284 284 282 285 286 292 295 298 300 300 300 301 300 298 298 297 295 290 290 297 298 294 292 295 292 290 286 289 287 287 286 291 292 284 285 283 283 288 282 282 285 288 295 287 288 284 284 287 290 293 294 295 295 295 299 300 301 301 301 301 302 301 302 301 302 302 302
301 301 301 301 301 301 300 299 299 299 298 298 298 294 292 292 294 294 293 291 289 287 282 283 288 296 298 298 296 298 301 300 299 299 298 298 299 299 297 297 297 298 297 295 294 292 289 288 284 283 285 286 293 287 284 286 289 288 287 285 290 291 293 286 290 288 288 291 292 293 294 296 295 294 297 299 299 299 300 299 300 299 300 302 302 299 300
301 301 301 301 301 300 300 299 299 299 298 298 296 295 293 293 294 293 290 290 286 284 284 282 288 294 297 294 297 300 300 299 299 298 298 299 299 299 297 296 295 296 296 296 290 285 284 285 285 284 285 288 292 288 288 289 289 287 284 287 291 290 288 291 287 286 285 286 291 293 289 288 295 295 297 299 299 300 299 299 300 299 300 300 304 301 299
301 301 301 301 301 300 300 300 299 299 299 299 297 295 295 293 294 295 295 293 290 284 284 285 287 291 296 293 297 298 299 299 298 298 297 298 298 298 296 295 294 292 292 293 290 285 283 285 285 281 282 286 288 286 287 289 288 285 284 285 290 291 292 285 282 285 284 288 291 291 291 288 289 294 297 298 299 299 300 301 301 301 299 298 300 302 301
301 301 301 301 301 300 300 299 299 300 300 298 294 293 294 296 296 296 296 297 294 290 288 288 291 289 282 290 297 297 299 299 298 297 297 297 298 297 296 295 294 292 292 289 287 286 285 284 282 287 289 290 290 284 287 284 282 282 285 290 293 294 294 294 293 287 290 293 292 293 295 297 301 301 299 299 299 298 300 300 299 298 299 299 300 301 301
301 301 301 301 301 301 300 299 300 300 299 294 292 288 284 294 298 296 297 297 295 295 286 285 284 286 293 294 293 296 297 299 298 298 296 296 296 296 296 295 295 297 295 291 288 288 284 286 283 285 289 295 291 282 283 282 282 283 286 289 294 294 295 295 296 296 296 299 297 296 296 298 297 297 298 298 299 300 300 300 299 300 300 299 302 301 302
301 301 301 301 301 300 300 300 300 300 299 291 288 282 282 284 294 301 299 300 299 294 288 288 286 291 288 292 293 293 295 297 296 295 295 296 295 296 297 298 297 298 292 290 291 288 286 284 283 288 289 294 287 285 284 283 283 281 289 293 292 295 296 297 295 297 297 298 298 297 298 297 297 299 300 299 298 298 297 298 300 302 300 301 300 300 300
302 302 301 301 300 300 300 300 300 300 293 292 289 287 285 291 297 300 300 299 298 294 288 286 286 284 284 289 293 296 297 298 298 296 295 297 295 297 297 299 296 299 293 288 287 287 286 282 285 286 288 293 293 286 284 283 283 284 288 291 293 294 295 296 297 298 298 297 298 298 298 299 297 299 298 298 297 298 299 298 298 300 302 301 300 300 299
302 302 301 301 300 300 300 300 300 299 293 296 299 300 300 300 300 300 300 298 295 291 294 287 284 286 284 288 293 294 297 296 295 295 293 294 296 296 293 297 298 298 304 295 290 288 285 283 282 286 288 292 289 285 284 282 282 285 290 293 294 294 296 298 297 297 297 297 297 298 294 294 298 297 297 296 298 298 298 299 299 301 302 302 301 300 300
302 301 301 300 300 300 300 300 301 300 300 297 292 294 297 300 300 301 300 297 293 293 290 287 285 284 285 290 288 291 299 292 288 292 287 293 295 294 289 294 294 290 293 291 287 289 285 288 287 282 287 288 284 285 284 284 285 289 292 294 294 294 295 297 297 297 297 296 297 298 297 297 297 296 297 297 297 297 298 297 300 301 298 299 298 297 298
301 301 300 300 300 300 300 301 295 295 292 293 292 295 297 300 301 301 300 295 288 286 287 287 288 285 284 282 278 287 295 293 289 292 287 289 295 293 291 289 288 288 287 296 287 286 285 287 288 288 285 285 286 285 283 284 287 290 292 294 295 295 296 297 299 297 296 295 295 295 296 296 295 295 295 294 296 297 298 297 297 300 299 295 296 297 297
300 300 300 299 299 299 294 297 295 293 291 290 292 300 304 305 305 301 300 298 296 287 286 286 286 284 283 279 280 284 293 289 289 293 291 288 294 292 287 286 287 287 292 289 285 289 288 293 290 286 283 286 283 285 283 287 291 294 293 295 294 295 296 296 297 297 294 295 295 296 298 297 297 295 294 295 295 295 296 297 296 297 297 296 295 295 295
299 299 299 298 296 296 291 289 293 294 293 295 298 302 304 301 299 298 295 294 295 299 292 287 285 285 286 283 281 285 291 283 285 287 292 289 286 283 286 286 283 284 288 285 285 286 289 293 286 286 285 284 286 286 288 291 293 293 296 294 295 295 295 295 296 295 295 295 295 295 294 295 295 295 296 295 294 294 296 296 296 296 297 296 295 295 296
298 298 292 289 287 286 288 292 294 296 299 298 301 296 293 292 285 287 289 287 288 296 289 292 286 289 289 286 284 291 290 284 284 285 285 285 287 289 283 286 283 286 283 283 286 294 289 289 288 286 284 284 287 290 291 293 294 295 297 297 296 296 295 293 295 295 295 294 293 293 294 295 294 293 294 293 293 294 293 294 293 294 295 295 295 295 297
295 290 286 284 284 282 286 292 295 298 296 297 296 289 287 288 288 287 287 288 290 287 289 290 287 291 288 286 288 292 290 287 283 280 282 286 287 282 286 286 286 287 281 282 285 293 284 283 281 285 284 286 291 294 294 293 294 293 296 298 298 297 294 294 294 294 293 292 293 293 292 294 294 293 293 293 293 293 293 293 294 294 294 294 295 295 296
287 284 281 280 280 281 290 292 296 293 292 289 287 285 284 288 286 282 284 286 286 288 289 286 292 290 290 288 285 285 290 288 281 279 280 281 288 283 284 284 283 282 279 278 281 287 283 282 280 281 281 282 288 292 292 293 294 294 294 295 297 296 295 297 297 297 297 295 294 293 293 293 293 293 293 293 293 294 293 294 293 293 294 294 293 295 295
285 284 282 279 282 285 287 290 290 289 287 285 285 285 285 284 285 282 284 284 283 284 289 288 290 289 290 290 288 286 292 291 287 284 282 283 284 284 280 280 282 281 277 277 282 283 280 281 279 281 284 285 290 291 292 293 293 293 292 293 294 295 295 296 296 296 297 296 295 294 293 294 294 293 293 292 292 291 291 292 293 293 294 295 296 296 298
287 286 286 287 290 291 289 285 282 283 285 285 282 279 281 283 283 283 282 281 279 277 284 289 285 286 288 290 290 291 288 290 285 283 284 283 286 284 280 280 280 277 277 279 282 280 280 281 279 280 282 285 289 291 292 292 292 292 292 293 293 294 295 296 295 295 295 296 294 293 293 293 293 293 293 294 293 292 292 292 293 293 294 295 296 298 299
297 295 293 287 285 283 283 282 282 283 280 281 277 277 277 279 281 281 278 281 283 286 285 293 291 292 291 294 290 292 287 287 288 283 284 282 282 281 278 278 276 277 277 279 280 278 277 275 276 281 283 287 291 292 291 292 292 292 292 292 293 294 296 296 296 295 294 295 294 294 293 293 293 293 294 294 294 293 292 292 293 294 294 294 296 297 298
290 290 286 283 283 282 282 278 283 283 279 279 277 274 275 276 277 278 280 278 280 284 289 291 289 290 286 289 288 288 287 288 285 282 284 281 282 278 277 277 277 280 280 277 276 278 276 275 282 282 285 290 292 290 290 291 291 291 291 293 294 294 294 294 294 295 294 294 294 294 294 293 293 293 294 293 293 293 291 291 292 293 294 296 296 295 295
283 281 281 280 279 281 279 273 279 278 274 275 280 276 275 274 273 274 280 283 287 289 291 290 289 289 288 290 287 286 285 285 284 283 281 281 279 277 277 277 276 277 278 275 274 275 279 282 286 286 288 290 292 291 291 291 291 293 293 292 293 293 293 295 294 293 292 293 293 293 292 292 293 292 292 294 294 293 292 292 292 293 294 294 293 293 292
280 280 278 276 274 277 277 272 275 278 279 280 280 280 280 281 281 283 286 289 289 290 290 291 290 288 285 287 286 287 283 281 282 282 280 278 277 277 277 278 277 276 273 271 274 277 278 280 281 286 290 292 292 292 291 292 292 292 294 294 293 292 292 293 292 293 294 293 294 295 293 292 292 292 293 294 297 297 295 294 294 293 291 290 291 292 293
281 282 281 279 276 278 281 277 276 277 282 282 283 285 285 286 287 288 288 289 289 290 291 291 289 288 286 284 285 284 280 281 282 281 279 280 278 278 279 279 276 272 273 273 273 273 276 281 282 285 289 291 291 291 291 291 292 292 292 292 293 293 292 294 294 294 294 295 294 294 293 292 292 294 295 296 296 296 296 297 297 296 295 294 293 293 292
279 280 280 274 272 275 278 276 279 280 281 284 285 286 287 288 286 286 288 288 289 289 289 288 287 284 284 284 285 283 280 280 282 281 280 280 279 274 272 272 271 271 271 273 273 276 280 280 285 289 291 292 293 292 291 291 292 292 292 292 292 292 293 293 294 294 296 296 295 294 294 295 296 295 296 296 296 296 297 297 296 295 296 296 295 292 292
281 279 276 275 276 278 276 278 279 279 281 283 286 285 284 284 283 285 289 288 289 291 290 288 283 283 284 282 283 282 284 284 281 279 280 277 277 272 272 271 270 273 274 276 277 278 280 283 287 290 291 293 292 294 292 291 291 292 293 294 294 294 293 294 294 295 297 298 298 298 297 297 296 295 293 294 295 295 296 297 297 295 294 294 293 292 293
280 278 279 278 276 275 278 278 279 277 279 281 282 283 283 281 282 285 289 290 289 288 286 286 285 286 284 282 281 282 282 282 282 281 277 276 273 273 272 270 269 273 275 278 279 279 282 286 290 290 291 292 291 293 293 291 290 291 292 293 293 293 295 295 296 297 297 298 299 299 298 297 296 295 294 293 292 293 295 296 295 295 296 295 294 293 293
281 280 278 278 278 275 277 273 273 275 277 279 280 282 282 282 282 284 287 290 289 283 282 283 282 282 281 279 278 278 280 284 281 280 277 277 275 273 273 272 270 274 278 281 283 285 288 289 291 290 289 290 292 292 293 293 292 293 293 293 293 293 293 294 296 296 297 297 297 294 298 298 297 298 297 297 296 295 295 293 292 294 295 294 294 293 291
277 276 276 276 279 279 280 278 278 279 279 281 281 281 283 282 284 287 291 288 283 284 283 282 284 282 278 278 279 282 285 284 281 279 278 279 277 279 274 275 281 282 282 282 287 289 289 290 291 292 292 292 292 292 292 292 292 293 293 294 293 292 291 292 293 294 296 298 299 299 297 295 295 296 297 296 295 294 293 293 293 292 291 292 294 294 293
Wind_Speed
21 22 23 23 24 26 26 27 28 25 26 12 10 6 5 4 3 6 6 2 4 3 4 3 3 3 7 12 10 3 3 4 4 5 2 5 0 2 2 3 1 3 2 1 1 0 0 1 1 3 3 5 13 3 11 10 6 5 2 3 5 5 3 3 0 1 2 1 3 8 9 8 4 2 3 7 10 7 7 7 7 6 2 1 1 2 4
20 21 22 23 23 25 26 27 27 25 23 12 8 4 4 4 4 5 5 1 3 2 5 7 8 8 12 8 9 3 3 2 6 4 5 3 4 3 2 2 4 3 3 1 1 1 2 2 3 4 1 1 9 8 10 13 4 5 5 5 2 4 3 4 3 4 3 4 5 5 1 2 4 4 3 7 6 7 3 5 2 3 5 6 7 5 3
20 22 22 23 23 23 25 26 27 26 26 18 5 4 4 4 2 4 5 5 3 2 1 3 6 10 12 12 13 11 2 5 6 5 6 4 3 4 3 3 1 2 1 1 2 2 4 1 5 3 3 3 2 9 9 16 9 8 4 2 4 2 3 4 4 9 9 10 13 12 11 10 2 1 5 4 7 7 5 5 1 3 1 4 3 2 8
20 20 21 22 23 24 24 26 26 26 26 23 6 4 3 3 4 4 4 5 5 2 0 2 5 9 10 11 6 7 10 7 2 3 6 1 5 3 3 5 5 4 1 1 3 6 1 3 1 4 5 5 2 4 10 8 12 10 7 9 1 2 2 3 5 8 8 2 3 2 6 3 5 3 7 4 2 4 5 5 4 4 3 3 4 6 3
20 20 21 21 21 23 23 24 23 24 25 25 6 3 2 2 4 5 7 6 1 4 3 6 7 7 10 5 7 11 12 9 5 4 3 3 6 4 1 6 5 6 4 4 3 4 1 2 3 5 4 4 2 6 6 7 6 7 5 10 2 1 3 3 6 8 9 8 4 6 8 6 5 4 3 3 6 5 7 5 6 4 9 1 2 5 8
19 20 21 20 21 21 23 23 23 24 24 25 6 3 3 4 1 2 2 4 6 10 7 10 10 12 9 5 6 9 12 12 10 5 1 4 4 3 4 5 9 8 5 2 2 4 4 3 1 6 3 6 7 5 5 4 6 7 4 1 2 1 2 0 3 1 3 3 9 7 7 7 8 6 5 6 5 5 6 4 3 5 3 5 4 6 6
18 19 20 20 20 21 22 23 23 23 24 17 4 5 3 2 2 2 4 3 5 5 10 12 10 12 9 5 6 12 12 13 6 4 6 2 2 5 3 7 10 9 7 3 1 4 2 3 2 1 5 4 5 5 4 1 3 5 2 4 2 2 0 0 2 4 3 2 6 4 11 3 5 6 5 8 8 7 6 4 3 3 1 3 9 8 7
18 19 19 19 20 21 21 21 23 21 20 11 4 6 4 4 4 4 3 4 8 8 5 6 7 7 9 7 8 8 11 13 15 7 3 5 4 1 4 9 11 10 8 3 4 3 1 1 2 1 2 7 2 1 0 2 5 1 3 2 1 2 1 3 0 5 3 3 5 4 8 9 4 3 3 5 5 3 0 3 3 4 6 3 4 4 3
19 19 19 18 19 19 20 20 21 20 17 5 6 3 4 3 2 3 6 8 5 5 4 6 7 5 5 6 9 10 10 11 12 10 6 4 5 5 8 9 11 7 6 4 2 2 3 5 8 7 4 3 1 2 2 1 3 5 4 2 4 3 0 2 3 6 2 5 4 4 5 8 7 3 4 5 4 4 2 4 5 4 4 5 6 3 4
18 19 19 18 17 18 18 18 19 18 15 4 4 4 5 3 4 5 3 4 5 6 7 7 4 3 6 7 12 7 13 13 12 7 1 4 7 5 4 6 6 7 7 5 3 3 7 11 11 8 7 6 6 5 7 4 2 3 2 1 1 1 1 2 3 6 1 3 1 9 7 7 3 0 2 5 1 1 0 1 3 3 10 8 6 9 4
17 19 17 17 17 17 18 18 18 17 8 7 7 5 6 7 6 4 2 4 3 2 7 5 4 4 8 9 12 12 11 13 11 7 3 5 8 5 4 5 5 5 4 5 3 6 10 10 11 5 5 7 8 6 6 8 7 6 2 3 1 2 3 2 0 4 1 2 3 4 7 5 2 3 3 3 2 7 5 2 2 4 2 5 4 5 7
16 18 17 17 17 17 18 18 16 18 10 3 4 4 3 5 6 3 3 4 6 3 4 5 5 6 10 14 9 11 13 14 15 11 9 7 12 10 3 4 1 5 4 3 8 10 14 6 2 1 2 5 8 8 7 8 9 9 5 2 1 2 2 1 1 3 2 1 2 9 6 2 3 4 5 4 3 4 11 3 4 1 2 3 8 7 10
15 16 16 16 16 16 16 16 17 17 14 4 4 6 4 6 4 4 4 3 4 8 8 8 9 10 9 10 11 9 11 13 12 11 8 8 9 8 3 2 2 4 7 11 11 9 4 2 3 2 2 2 3 5 0 2 1 1 2 2 1 3 3 0 4 2 1 3 3 7 4 3 4 5 2 1 3 2 7 6 4 4 1 1 4 10 11
14 15 16 15 16 16 15 15 16 15 16 10 4 4 4 5 4 3 3 4 6 5 6 11 6 8 13 12 10 13 11 10 12 3 4 3 7 8 7 2 4 8 7 4 5 2 1 5 2 4 5 6 3 4 5 2 4 7 8 7 3 4 3 3 2 1 3 2 3 2 2 2 4 2 2 0 1 0 6 4 2 1 1 1 0 1 4
13 14 14 15 15 15 15 15 15 16 14 13 4 4 5 4 4 4 3 3 6 10 4 3 8 11 12 12 8 11 8 9 10 10 10 6 2 3 5 10 10 9 3 1 3 3 2 1 6 4 4 5 3 1 4 3 4 3 4 5 7 4 5 1 5 2 4 7 4 3 4 2 3 3 5 4 4 1 3 8 1 3 2 1 4 6 6
13 14 14 14 14 14 14 15 14 14 15 14 4 4 4 3 4 2 4 3 5 7 2 3 4 6 7 9 10 7 7 8 9 9 9 5 4 14 10 8 11 3 0 0 1 4 4 4 0 3 1 0 1 1 2 4 2 2 3 6 7 6 7 5 7 1 3 6 5 1 3 1 4 6 7 5 2 2 1 7 2 3 1 2 5 6 7
13 13 14 14 14 14 14 13 13 13 13 14 6 4 4 3 2 4 4 3 3 8 10 10 5 3 6 7 3 2 4 5 8 7 8 9 10 9 13 14 8 2 4 1 4 4 6 6 2 2 0 0 1 0 2 2 3 2 6 6 9 8 7 7 8 5 2 3 4 3 1 2 2 5 6 4 1 2 3 3 2 4 6 2 4 9 9
13 13 14 15 14 15 14 13 13 14 13 14 7 4 5 3 2 3 3 3 4 6 4 3 1 4 3 2 7 5 3 4 3 4 4 7 7 5 10 8 9 5 3 4 3 5 3 3 3 2 2 0 0 1 1 1 1 1 1 0 2 4 3 6 3 2 4 6 1 1 2 3 3 5 6 4 1 4 5 3 3 3 5 2 4 6 6
13 13 13 14 14 14 14 14 13 13 13 13 7 5 2 2 4 1 3 3 2 7 5 2 5 9 7 3 7 5 3 5 6 5 7 7 0 5 10 6 2 6 7 3 4 4 2 1 0 1 1 4 3 1 1 1 0 1 0 1 2 2 2 1 2 5 2 1 4 2 3 5 3 6 3 3 1 1 1 3 2 0 3 3 4 7 8
13 13 13 14 14 14 14 14 14 13 13 14 8 4 6 4 3 1 4 4 3 8 15 11 6 8 3 4 3 4 4 4 3 3 2 5 4 12 5 4 5 5 6 4 6 1 3 1 1 0 2 1 1 1 1 1 1 0 1 0 2 1 2 0 1 1 1 4 3 1 2 1 1 6 3 3 2 3 2 2 1 4 2 1 1 7 8
13 13 13 14 14 14 13 14 14 13 13 14 10 5 6 2 2 2 2 4 6 9 10 2 4 9 4 7 8 7 4 9 6 4 3 5 5 4 4 2 6 4 4 3 3 3 1 2 2 1 1 0 3 2 1 1 5 1 0 1 2 2 2 0 1 4 2 1 1 0 3 3 3 0 2 2 2 2 4 4 2 1 1 1 2 4 7
13 13 14 14 15 15 14 13 14 14 14 13 13 5 6 2 3 2 3 2 5 8 9 7 6 11 13 13 14 12 13 15 15 8 5 6 2 1 3 5 5 2 1 1 2 1 2 1 1 2 2 2 2 1 1 2 2 4 2 1 2 2 1 3 1 1 1 1 2 3 3 4 4 1 2 1 1 2 5 3 2 2 3 1 1 5 5
13 14 14 14 15 15 14 13 14 14 14 14 10 4 6 7 4 2 3 6 6 9 11 13 11 12 11 12 16 15 15 13 12 7 7 3 5 2 3 1 2 1 1 2 3 1 2 2 1 1 1 1 0 1 3 3 1 2 2 2 2 0 2 1 3 0 1 0 1 2 2 1 3 2 1 1 1 2 3 3 4 1 2 1 1 1 5
14 14 14 15 15 15 15 13 13 13 14 14 10 6 6 4 6 4 2 4 4 9 8 3 2 5 1 3 2 6 8 7 11 13 7 7 3 5 2 3 2 2 2 2 1 2 2 1 2 0 0 1 1 1 1 2 0 0 1 2 2 2 0 1 2 0 4 2 2 2 1 3 3 3 1 0 1 1 2 3 2 0 2 3 5 1 2
14 14 14 15 15 16 15 15 14 14 14 15 12 7 7 6 2 1 4 4 4 3 5 8 7 12 6 5 8 6 7 9 6 8 9 10 10 5 1 1 1 1 2 4 1 2 1 1 2 0 0 2 2 1 1 1 2 0 2 3 2 2 1 4 1 1 2 0 1 2 4 4 5 3 1 3 3 3 1 1 1 1 1 2 3 3 3
14 14 14 15 15 16 16 15 14 14 15 15 13 7 6 7 4 3 3 5 5 4 5 5 10 7 3 11 8 3 3 3 7 9 12 15 15 11 2 3 3 2 1 1 1 2 1 0 0 0 0 3 2 1 1 6 1 1 1 2 2 3 3 1 0 1 2 2 3 3 2 2 1 2 1 2 1 2 2 3 3 2 1 0 1 1 1
14 14 15 15 16 16 15 15 15 15 15 15 9 6 7 8 5 6 6 4 2 3 2 6 8 11 7 15 11 4 3 3 4 7 8 10 10 7 4 3 4 5 5 5 2 1 1 0 1 2 2 2 1 2 1 1 1 1 1 3 2 1 1 0 3 4 1 3 2 3 3 1 1 1 2 3 2 1 1 3 4 3 2 0 0 3 3
14 14 15 15 16 16 16 15 15 14 14 15 9 7 8 8 6 7 8 8 4 1 4 6 8 15 15 9 4 5 9 6 4 7 8 7 7 5 5 5 2 1 2 1 4 2 1 0 3 2 1 4 1 3 0 0 1 1 1 2 1 1 1 1 2 7 1 3 4 2 0 1 4 3 4 3 2 2 5 2 1 1 0 3 3 1 2
15 15 15 16 16 16 15 15 15 13 15 12 6 9 7 5 2 5 7 5 4 3 4 8 10 6 2 9 11 9 5 4 2 5 5 6 7 6 5 5 4 2 1 2 1 0 1 4 1 2 2 1 1 3 2 1 0 1 1 1 1 1 2 1 2 2 3 4 3 4 0 1 1 1 2 3 2 3 4 0 0 2 1 4 3 2 3
15 15 16 17 17 16 16 15 15 13 13 4 4 2 3 2 3 3 5 6 5 1 3 5 7 5 4 4 6 4 5 2 4 5 6 5 5 6 6 4 3 3 2 1 2 2 3 1 2 2 2 0 1 1 1 0 0 3 3 3 3 2 1 2 2 1 1 2 2 3 4 4 4 3 3 3 1 0 2 1 1 1 0 3 5 2 1
15 16 17 17 17 17 17 17 16 14 10 2 3 2 2 1 1 2 6 4 5 3 2 2 7 7 8 4 3 9 7 3 2 3 4 5 4 4 3 3 2 4 2 0 0 2 1 2 0 2 2 0 3 0 1 0 1 3 1 2 3 3 3 4 3 4 4 5 4 1 1 2 4 1 1 4 6 1 2 1 3 3 3 5 3 2 2
17 18 17 18 17 18 19 18 17 12 3 4 4 4 3 2 2 3 2 3 1 2 2 5 6 3 4 6 3 3 2 3 2 2 2 3 2 3 3 5 3 3 3 2 1 0 2 3 1 2 1 0 2 0 1 1 1 3 2 4 3 3 3 3 4 4 1 2 1 1 2 1 4 1 2 4 3 2 4 3 2 4 7 6 5 5 4
18 18 19 19 20 21 20 20 16 10 5 7 13 18 20 24 22 18 6 3 2 2 1 1 3 3 3 7 8 5 2 2 1 1 2 1 3 2 1 0 1 0 2 1 1 2 3 2 0 1 2 0 0 0 1 3 4 3 3 4 4 3 3 4 3 2 3 3 2 1 2 1 2 3 3 2 0 1 3 4 3 5 6 7 6 5 5
18 19 22 22 22 22 20 20 16 12 6 4 6 5 6 12 13 18 7 2 1 1 0 1 3 3 7 5 5 4 0 1 1 1 1 1 2 3 2 1 1 0 2 4 3 0 2 0 2 2 2 1 1 0 2 4 4 4 4 4 3 3 3 4 1 5 5 5 1 1 2 2 2 1 3 4 3 3 3 3 4 8 5 6 4 4 3
19 22 23 23 22 22 18 8 0 3 3 3 4 6 5 8 8 5 10 6 3 1 0 2 1 4 5 5 2 7 1 1 2 2 2 1 1 2 1 1 1 0 2 1 0 1 1 3 4 2 2 1 0 1 4 4 3 2 2 2 1 1 0 0 1 3 4 3 3 3 3 1 3 4 3 2 2 1 4 4 3 7 6 3 4 3 3
18 20 22 23 23 10 1 2 2 3 2 3 5 4 6 5 2 6 8 2 1 2 2 2 1 4 2 3 4 5 2 3 1 0 1 0 1 1 3 2 1 5 1 2 2 0 1 1 2 0 0 0 4 4 3 3 1 0 1 1 2 1 2 1 2 2 3 4 5 5 6 7 8 4 3 3 3 3 3 5 4 5 5 5 3 3 3
17 21 23 17 5 2 0 1 2 1 0 3 11 13 4 7 4 5 2 1 3 1 2 1 4 5 5 5 2 7 3 4 2 1 0 1 2 1 1 1 3 1 0 1 0 3 4 1 1 0 1 2 3 4 4 4 3 1 0 2 3 2 3 3 3 2 6 6 8 6 4 5 5 4 5 5 3 2 4 4 1 4 5 5 4 4 4
19 18 5 3 1 0 0 0 1 5 13 12 7 2 1 3 0 1 1 0 2 2 2 2 7 2 2 1 7 5 1 5 2 0 1 1 2 1 0 1 3 2 2 2 4 4 3 0 1 2 3 3 3 3 3 2 1 3 0 2 3 4 4 2 2 3 4 4 3 3 4 6 5 4 4 4 3 4 2 0 1 1 2 3 3 4 4
9 3 2 2 1 1 1 0 6 15 9 3 0 1 0 0 0 0 2 2 1 3 2 4 6 4 5 5 9 3 4 3 5 2 0 1 1 2 0 1 1 0 2 1 1 2 0 1 1 1 3 1 0 1 1 2 1 2 1 3 5 6 4 1 1 3 3 2 1 1 2 4 4 2 1 4 3 3 2 3 3 3 3 3 3 3 2
3 5 2 3 1 3 3 3 10 8 1 1 0 0 0 0 1 2 0 1 2 2 2 6 3 5 8 10 5 8 1 6 4 2 2 3 1 1 0 0 1 1 1 0 2 0 1 1 1 1 3 2 3 1 2 3 3 2 1 1 2 3 2 4 6 5 7 4 3 3 3 3 2 3 3 3 3 4 3 3 3 3 3 3 3 3 3
1 1 2 1 4 3 4 7 5 0 0 1 0 0 0 1 2 2 1 1 2 4 3 4 1 2 3 4 3 8 6 0 2 1 1 2 2 2 1 1 1 1 1 1 2 1 2 1 0 1 5 4 4 3 3 3 1 0 0 1 3 4 4 5 4 4 6 5 4 4 3 3 4 4 3 3 3 3 3 3 3 3 3 4 4 2 1
2 1 3 3 5 5 5 2 1 0 0 0 1 1 2 2 0 0 1 1 4 2 2 3 2 3 5 11 8 5 6 3 1 1 1 1 1 1 1 0 1 0 1 2 1 2 1 1 1 3 4 3 3 4 4 4 2 3 4 4 4 5 5 5 5 2 3 6 4 3 2 4 4 3 3 4 4 3 3 3 4 4 3 2 2 2 2
10 8 2 2 2 1 0 1 1 1 1 0 1 1 1 0 2 2 2 2 1 0 2 2 3 3 3 2 3 5 5 1 1 1 0 1 1 1 1 0 1 0 1 0 1 1 0 1 2 6 4 3 4 5 4 3 3 3 4 3 4 4 6 5 5 4 2 4 4 4 4 4 4 2 2 3 4 4 3 3 2 2 2 3 3 3 3
1 1 1 0 1 2 0 0 1 1 1 0 2 1 1 1 4 0 0 2 1 2 1 3 4 4 6 2 1 2 1 2 1 0 1 0 0 0 0 0 2 2 0 1 1 0 2 2 6 3 2 1 2 3 4 3 4 4 3 1 1 2 5 5 5 5 4 2 3 3 3 4 4 3 3 3 3 4 3 3 3 3 3 3 5 4 4
0 1 1 0 0 1 1 2 1 1 2 2 2 2 2 2 4 1 3 4 1 5 4 3 1 1 6 6 1 2 1 2 1 1 1 0 0 0 1 1 1 1 1 1 1 1 1 1 2 1 2 4 5 4 3 4 4 5 5 2 1 1 3 6 5 4 3 3 2 2 3 3 4 3 3 3 3 3 3 2 1 3 3 3 3 3 3
1 0 1 2 3 2 1 2 0 1 1 1 0 1 2 5 2 5 5 1 2 5 6 7 5 3 6 4 1 2 1 0 0 1 1 1 1 1 2 0 1 0 1 1 0 1 3 5 5 6 5 6 6 5 4 3 1 3 7 6 5 3 3 4 4 4 4 3 3 4 3 3 4 4 3 3 3 3 3 1 1 2 2 3 2 2 2
1 0 0 0 1 3 1 1 2 1 0 2 3 1 3 6 6 7 5 1 3 5 5 5 5 3 3 4 2 3 1 1 1 2 1 0 1 1 1 0 1 0 1 1 2 3 3 6 6 5 4 4 4 4 3 1 2 3 3 4 4 4 3 4 4 4 4 4 3 3 3 3 3 3 3 4 3 3 2 2 2 2 3 3 2 3 4
0 1 1 0 3 1 1 3 0 3 3 5 4 3 4 2 3 6 6 2 4 3 4 4 5 5 3 2 1 3 3 0 1 3 1 1 1 1 1 1 1 1 1 2 4 5 5 4 5 4 4 5 6 5 4 3 2 3 4 4 4 3 2 4 3 3 4 4 4 3 3 3 3 2 3 4 3 2 2 3 3 3 4 4 4 4 4
1 0 1 2 1 0 2 2 4 6 6 4 4 5 4 6 6 7 8 2 2 6 4 2 2 1 3 2 0 1 2 0 0 2 1 1 0 2 1 1 0 1 4 5 4 3 5 4 2 4 5 6 4 6 5 4 4 4 5 6 5 5 4 4 4 4 3 3 2 3 2 2 3 3 3 3 4 2 1 2 3 3 3 4 3 3 3
0 1 0 1 2 4 4 1 0 4 5 6 5 5 4 5 6 8 3 2 3 2 3 0 1 0 2 1 2 1 2 1 1 1 1 1 1 0 1 0 2 3 1 3 4 4 4 2 4 5 4 5 5 5 5 4 4 3 3 3 4 4 4 5 5 5 4 3 4 3 2 2 2 3 3 3 2 1 2 2 2 3 3 3 4 4 4
0 1 3 3 5 5 1 3 1 4 7 6 5 6 3 7 4 6 2 2 3 4 4 2 2 1 2 2 0 0 1 1 2 0 0 0 0 1 1 1 4 4 5 6 6 4 2 4 5 6 4 4 4 5 4 5 5 4 5 4 4 4 3 2 4 4 4 3 4 5 4 3 2 2 3 3 3 3 3 2 2 1 3 2 3 4 4
0 1 2 3 2 4 4 3 1 5 7 8 7 4 1 5 4 7 3 1 1 5 1 1 1 1 2 0 1 1 3 1 0 2 3 1 0 0 3 5 9 7 7 7 3 1 2 3 4 7 7 7 6 4 4 4 4 4 5 5 5 4 3 2 2 3 4 3 3 3 2 3 3 3 3 4 3 2 2 0 1 1 2 3 3 3 3
Wind_Direction
347 348 347 348 348 349 347 348 347 346 345 347 347 329 339 4 267 279 307 282 207 271 259 249 314 297 295 306 298 213 281 261 292 310 330 349 105 249 254 237 264 256 204 289 342 359 292 211 231 196 170 183 213 187 167 199 197 163 209 210 247 150 256 301 307 159 308 342 65 133 154 128 126 178 106 148 187 171 161 170 183 154 182 98 51 172 253
348 347 349 349 350 350 348 347 347 345 348 343 328 325 332 305 297 313 301 20 193 319 357 329 334 321 313 328 307 194 226 277 315 333 321 324 341 326 294 331 215 249 234 252 254 292 37 269 354 334 40 226 218 213 174 193 201 169 212 180 172 147 258 131 180 112 117 73 86 112 340 115 157 169 204 181 167 185 163 104 61 136 217 162 123 186 274
349 349 350 350 350 350 349 348 348 346 342 349 332 324 309 278 248 233 293 345 41 104 329 291 312 320 314 325 332 345 302 214 254 301 303 296 309 330 265 209 216 247 32 288 285 255 168 322 10 311 315 290 238 186 188 194 212 219 213 194 118 316 219 137 154 159 154 163 169 178 176 185 215 146 141 161 146 164 120 205 46 143 243 115 131 226 252
349 350 351 351 351 351 351 351 350 347 344 345 7 327 326 2 5 322 321 350 5 88 254 205 319 312 329 333 320 338 339 341 286 195 290 306 319 248 229 288 220 258 187 345 24 15 89 131 303 342 327 329 326 145 199 187 214 226 246 274 350 270 110 135 158 156 168 201 205 252 128 90 124 188 135 168 125 136 123 111 101 187 196 155 229 173 225
350 350 349 350 353 352 351 352 352 350 345 346 347 327 133 280 48 332 344 322 151 344 273 335 348 321 315 303 335 337 337 320 306 172 301 0 328 310 252 4 27 338 18 36 16 343 127 57 41 336 319 284 277 297 228 206 221 228 230 248 99 200 208 220 164 156 170 182 152 173 127 138 154 153 138 155 138 151 120 133 199 172 104 294 266 212 141
353 351 350 350 352 352 354 352 355 353 347 346 9 33 344 41 340 9 34 305 318 339 352 342 320 309 315 296 326 333 336 346 347 320 143 328 320 1 329 1 9 349 359 350 46 340 61 44 348 318 352 311 328 26 102 156 221 219 250 56 179 167 178 200 121 188 190 194 137 156 122 144 161 163 145 131 151 126 140 204 190 137 150 193 218 182 174
354 352 351 351 353 353 355 356 358 356 348 344 11 27 347 45 309 276 2 331 297 270 279 304 303 304 318 309 342 341 341 334 339 313 316 328 334 18 357 340 340 342 334 42 21 22 49 341 303 3 318 350 338 21 87 30 315 242 293 326 129 87 109 298 107 125 57 30 111 138 127 102 131 156 152 136 145 190 154 168 155 151 169 192 169 166 209
351 353 352 351 352 354 357 356 359 359 349 337 15 48 357 19 343 332 337 267 285 277 283 296 314 324 344 345 344 331 329 327 334 331 328 329 325 326 6 332 335 336 335 12 59 6 218 256 292 296 23 337 32 261 291 304 311 64 217 279 218 121 282 334 341 79 41 358 59 79 129 124 99 45 97 92 106 98 298 113 120 114 59 73 111 115 230
351 351 351 350 351 353 357 356 359 0 355 12 14 32 36 312 266 283 306 312 290 295 306 324 320 315 335 353 337 330 328 327 328 311 304 303 309 333 333 323 321 335 343 345 111 167 270 240 239 263 278 270 215 71 258 45 318 9 337 332 311 65 282 61 61 75 22 7 70 80 65 96 106 74 72 103 110 139 170 132 193 125 143 121 95 79 258
351 352 351 350 350 353 356 356 356 2 2 11 338 14 342 289 266 271 281 290 304 322 325 315 311 351 342 337 330 331 311 305 325 318 219 264 257 268 292 304 313 302 335 310 302 305 281 267 260 247 242 233 261 252 262 299 329 330 258 254 11 42 98 53 70 81 346 336 148 120 97 73 65 319 216 168 151 262 319 40 117 169 148 108 125 220 220
352 353 351 349 350 351 354 357 354 2 11 16 360 344 346 347 334 317 281 295 265 313 329 313 355 313 316 320 321 319 307 316 324 338 313 318 309 296 260 275 306 284 278 258 279 285 265 256 258 248 228 228 244 247 264 275 245 218 257 350 346 64 82 102 92 115 109 334 199 112 87 119 227 232 188 157 174 173 134 173 201 184 118 187 187 190 142
350 353 349 349 350 352 352 352 356 355 7 13 338 316 319 321 309 282 310 324 294 307 324 288 313 315 317 307 317 312 316 320 315 310 297 285 289 298 264 263 220 313 239 262 313 307 294 267 232 157 218 251 250 251 235 239 256 220 215 264 12 21 57 64 111 97 123 331 62 92 148 218 243 274 245 216 246 128 109 85 46 355 13 105 102 124 149
347 351 351 349 349 351 351 348 352 354 355 2 6 342 320 325 308 319 305 297 288 323 334 313 314 290 288 309 321 313 311 298 295 301 278 274 301 317 318 281 266 256 320 319 316 323 359 322 322 172 228 196 235 239 130 42 19 237 170 168 95 15 65 139 34 87 58 46 26 117 203 235 276 283 274 219 138 173 78 34 356 14 342 273 189 179 173
341 350 350 352 348 346 346 348 345 349 351 356 356 321 310 328 337 317 317 326 293 282 303 297 287 328 334 324 319 311 312 323 329 284 316 319 303 305 320 274 273 290 293 293 303 332 7 27 28 18 347 4 9 28 327 338 33 52 36 5 63 124 111 82 80 55 129 158 116 153 288 17 2 26 65 311 147 166 137 139 302 6 342 113 320 26 115
335 345 347 350 348 344 344 346 345 345 345 350 340 311 320 322 342 325 300 268 294 299 277 260 331 326 321 313 327 320 336 337 345 335 315 286 272 275 273 292 301 301 277 17 349 32 108 85 31 31 347 41 70 277 324 26 301 3 57 57 45 38 63 245 98 350 112 110 61 17 29 62 281 243 278 296 276 343 177 100 312 301 344 150 146 162 141
332 337 342 349 349 345 343 341 342 343 342 347 334 322 302 320 312 301 322 304 305 307 246 198 325 310 310 306 306 313 332 331 340 315 324 333 315 334 324 325 314 303 113 48 68 79 25 82 181 72 55 151 251 22 337 344 356 309 29 57 50 24 71 77 99 109 32 43 94 125 113 243 217 264 276 284 266 164 162 68 331 270 66 13 164 157 163
332 332 338 345 349 344 340 338 338 339 338 344 333 322 294 340 349 329 312 293 224 247 287 302 289 241 295 304 324 341 340 339 345 352 334 331 329 314 309 332 317 14 347 66 19 57 33 42 81 116 162 243 54 162 324 49 339 334 334 12 44 36 355 17 42 38 57 133 79 77 196 86 325 275 283 290 118 100 62 148 270 270 319 359 164 163 165
330 330 334 342 345 343 339 336 337 340 340 338 329 324 290 307 289 317 293 282 303 281 256 227 38 314 296 296 302 297 297 299 302 284 255 289 300 327 331 331 338 329 37 81 8 67 56 56 44 43 57 272 181 55 59 315 40 284 37 4 29 7 356 40 104 111 36 78 35 358 332 284 265 280 292 330 91 76 91 184 235 260 295 303 171 168 161
330 330 333 340 341 341 339 335 337 335 337 336 330 292 253 274 306 288 303 287 292 274 236 284 319 274 265 270 248 274 275 292 299 311 310 328 298 319 296 261 295 347 6 30 39 62 73 339 24 103 74 317 23 145 284 51 4 269 77 40 30 20 75 329 75 44 52 135 104 182 235 240 261 291 289 278 13 60 194 234 205 262 292 313 174 159 173
328 329 329 335 337 339 338 334 333 334 334 334 334 299 278 289 276 273 342 317 253 268 283 266 228 245 215 195 255 279 302 292 245 249 319 296 301 347 352 16 337 358 347 31 45 9 68 3 272 330 34 296 288 207 30 276 271 129 311 184 121 210 100 206 132 196 64 35 69 41 95 283 240 300 356 37 94 224 207 172 180 195 241 297 142 165 181
326 327 327 332 332 336 338 333 331 331 331 330 333 317 311 243 250 266 188 268 303 301 295 268 203 225 234 247 236 243 237 252 260 288 237 244 300 347 31 349 323 340 0 2 38 333 31 354 337 333 224 140 283 40 79 319 329 286 267 226 111 199 79 316 264 188 132 74 104 137 208 242 280 116 154 277 188 190 174 122 33 322 171 112 132 177 182
322 323 324 327 330 332 338 335 330 327 325 327 329 317 291 299 287 262 250 207 258 232 255 282 304 279 260 254 257 245 240 241 245 230 269 295 322 217 255 304 302 316 303 349 18 354 23 319 348 40 8 322 11 101 200 51 358 287 303 91 56 319 153 177 145 238 107 188 210 241 234 226 275 166 157 198 288 163 169 107 124 83 18 163 122 193 192
318 320 322 324 327 329 333 332 326 325 322 325 325 295 300 297 284 282 301 287 251 259 263 273 276 268 266 254 241 236 233 233 244 244 218 230 302 303 219 239 291 265 334 9 13 317 306 38 294 202 320 201 241 334 0 107 243 341 345 292 180 211 195 171 88 151 306 287 185 245 296 317 323 309 290 167 51 50 100 106 62 326 266 238 328 177 188
314 317 318 322 325 326 328 330 325 322 322 321 318 293 295 293 296 315 300 254 290 301 297 201 325 309 209 266 240 211 216 236 222 226 201 183 205 292 312 237 237 8 6 307 272 299 273 274 246 182 254 247 84 62 85 358 279 250 6 336 339 273 124 97 96 295 80 156 322 28 333 320 339 331 335 67 123 143 159 112 115 103 277 295 282 248 162
311 313 316 319 322 322 324 326 326 325 319 316 313 298 287 279 223 66 332 329 333 12 303 311 260 242 264 265 281 267 208 208 195 195 183 200 206 199 224 246 181 86 325 309 23 40 37 351 328 354 7 276 109 315 252 70 315 94 18 273 357 344 56 62 71 87 101 201 243 256 273 258 276 262 360 52 17 37 38 44 165 152 174 235 270 311 333
311 312 314 318 319 318 320 323 321 320 316 315 315 300 290 278 261 233 235 254 251 267 299 307 286 297 307 325 313 259 268 177 179 181 191 198 206 219 240 357 345 38 355 1 43 281 256 359 65 237 58 300 71 105 214 209 225 285 158 240 213 266 7 128 126 115 288 302 261 280 300 333 330 323 282 255 267 320 19 66 85 74 81 56 351 10 305
308 312 314 318 319 319 320 320 319 318 320 320 310 286 278 272 224 200 216 217 243 295 212 260 284 297 351 313 290 289 246 225 184 186 196 203 208 219 250 299 322 333 358 335 25 115 77 78 83 273 193 240 156 207 176 326 198 259 271 279 310 23 55 197 63 57 2 183 216 146 105 239 279 305 275 312 331 75 59 52 43 40 59 192 134 334 352
306 312 316 319 319 318 318 317 316 320 325 321 311 289 274 269 241 204 202 205 191 220 277 285 303 297 306 270 251 287 299 282 201 183 187 190 190 193 206 223 213 319 307 358 326 6 38 9 260 227 261 300 31 294 259 227 60 46 306 267 262 72 239 127 152 153 194 262 248 208 156 192 231 231 296 305 302 111 73 60 3 320 221 196 138 126 352
302 308 314 317 318 317 316 315 315 321 324 326 319 304 292 251 263 181 187 178 210 283 280 275 275 297 310 300 316 314 293 287 162 163 157 161 176 182 196 187 191 186 88 75 126 120 193 239 202 234 277 214 126 276 13 317 30 241 241 249 259 243 168 158 212 189 253 242 245 186 160 349 337 314 269 301 314 111 81 7 267 253 216 186 155 173 166
298 306 312 316 316 315 312 310 311 315 320 11 2 345 352 54 106 143 164 164 173 262 305 323 321 272 296 306 289 297 310 4 115 128 137 160 177 186 192 174 203 187 167 186 160 262 234 224 279 278 274 262 228 217 49 214 260 249 261 265 255 300 258 259 194 166 292 318 284 219 211 253 252 257 284 284 311 162 101 48 326 292 81 156 134 142 154
298 303 309 313 313 310 308 308 305 303 314 62 55 21 34 21 114 117 157 151 166 232 252 223 259 299 310 249 273 284 275 268 148 137 163 178 195 186 192 149 209 156 202 312 281 235 135 281 281 284 306 176 124 100 204 140 283 313 284 294 294 321 328 312 264 231 248 289 297 274 215 275 286 294 350 11 348 20 90 16 14 51 85 78 74 118 117
298 304 307 312 310 309 305 301 297 293 248 170 209 192 179 109 60 119 141 33 318 254 288 317 309 325 295 298 261 252 241 213 142 146 172 148 209 186 175 177 204 178 161 175 213 84 235 216 152 278 355 312 76 113 74 101 206 247 277 315 298 286 279 295 313 307 291 281 259 31 360 339 6 62 262 319 335 21 106 101 68 82 81 84 76 64 65
298 303 307 309 308 306 301 296 290 282 214 232 246 258 268 271 267 264 267 289 293 225 249 282 269 305 285 278 316 293 185 47 55 103 263 204 174 135 166 84 100 299 203 109 264 221 205 145 190 346 259 351 175 165 130 209 221 235 243 267 283 288 296 290 274 276 324 13 44 214 235 231 293 311 290 283 30 109 106 95 92 85 76 75 72 68 60
302 306 308 308 306 304 300 296 290 274 263 253 260 250 246 248 249 249 223 157 204 261 88 249 289 295 276 321 343 283 107 139 254 117 273 295 171 93 193 79 21 84 243 175 260 36 322 71 207 239 328 17 62 88 275 258 247 268 292 285 279 300 307 297 5 8 345 336 315 198 226 245 293 339 46 40 43 43 58 72 90 76 62 75 75 93 117
307 308 308 306 304 304 307 305 184 128 175 217 251 271 263 255 221 198 166 162 127 338 11 257 222 294 318 334 345 277 326 35 307 204 164 261 116 147 198 89 330 77 286 84 11 190 224 231 174 103 246 292 54 245 249 252 277 292 307 318 305 2 356 350 313 339 332 351 9 4 353 91 80 36 14 7 23 5 83 46 49 111 89 69 98 101 105
309 310 307 307 307 314 77 44 79 126 138 226 238 272 273 326 184 160 174 232 10 148 158 249 159 233 173 280 309 281 341 326 262 80 189 130 44 40 97 125 315 255 193 118 211 302 231 226 79 282 272 75 236 198 231 199 196 291 282 268 267 217 237 247 291 334 18 35 47 38 50 55 71 59 39 34 36 25 68 90 57 74 105 114 118 114 97
314 310 309 308 313 117 327 175 247 206 69 299 279 281 243 114 70 85 77 352 288 271 258 309 275 230 186 246 273 274 16 307 332 37 295 153 206 291 70 53 222 273 41 343 261 206 252 62 93 96 256 191 254 242 230 191 178 185 272 267 288 304 304 280 236 140 66 41 46 41 41 64 56 38 55 41 21 24 61 67 90 133 146 159 161 144 162
315 312 327 360 24 47 33 288 98 323 325 308 308 46 357 13 73 336 76 59 264 199 232 206 251 228 136 193 254 251 329 264 41 321 297 215 97 265 114 164 232 139 266 229 244 176 109 79 219 181 261 249 248 254 245 232 229 230 243 17 7 352 339 308 130 106 85 58 47 31 38 45 50 19 68 47 32 53 32 303 51 59 106 132 158 154 135
323 312 17 14 75 254 207 266 340 333 318 253 196 80 319 14 62 295 205 208 246 201 221 211 248 176 184 219 262 278 210 278 328 17 349 263 148 298 144 198 280 84 310 6 273 161 73 335 348 343 264 283 65 230 246 204 267 267 29 50 23 334 333 354 137 151 140 155 176 244 181 149 131 87 74 97 70 55 61 68 70 65 93 102 104 97 98
17 9 359 337 281 237 287 309 344 332 298 67 311 119 203 191 141 258 327 128 244 237 173 234 221 195 197 210 239 306 184 139 184 260 215 299 170 195 252 160 261 102 259 205 239 44 125 226 275 46 285 255 228 243 207 187 192 236 249 220 201 270 251 107 85 82 98 94 102 77 60 65 79 120 129 112 104 87 58 47 45 52 62 66 63 91 119
20 325 354 281 263 304 300 322 336 73 96 86 348 351 59 264 220 192 135 229 246 233 192 201 213 259 234 230 213 246 277 138 234 131 130 233 253 92 69 243 228 149 279 272 274 79 75 81 16 201 240 228 196 193 158 105 95 322 319 153 167 167 116 83 84 95 106 96 81 65 62 81 85 86 82 91 89 94 92 83 66 57 63 68 79 80 78
220 204 226 245 278 283 320 355 89 55 33 198 129 255 221 236 320 335 175 185 245 221 260 174 254 231 250 181 205 190 268 213 148 118 152 288 284 158 217 302 14 101 255 236 133 65 76 178 271 276 263 247 216 148 134 150 206 150 144 160 136 117 104 104 96 57 96 113 100 83 77 93 89 88 108 101 91 83 69 66 68 56 71 79 85 82 79
266 269 264 336 344 331 201 339 274 129 141 208 60 312 320 261 223 199 266 261 285 111 269 198 234 246 273 125 262 203 218 211 220 273 84 241 286 54 92 14 51 290 235 316 65 66 73 219 235 251 255 222 179 160 171 189 175 148 149 142 139 142 127 121 119 116 89 109 124 126 121 96 86 78 78 90 94 60 34 38 39 46 40 48 48 46 33
206 117 108 25 340 281 118 291 228 61 333 104 131 212 262 299 304 17 311 273 300 322 321 8 317 45 317 277 224 294 312 301 60 88 335 339 104 253 64 216 224 242 79 45 40 114 222 220 209 228 255 183 164 169 185 196 162 123 95 94 84 103 97 93 94 91 71 60 92 110 102 102 101 74 65 55 77 106 78 44 19 40 34 51 47 36 24
54 354 36 14 316 266 62 303 318 117 205 246 185 211 165 191 253 199 233 247 144 271 311 301 253 245 266 283 322 267 126 234 301 100 253 80 6 29 117 256 252 30 53 257 320 328 348 286 272 262 232 178 196 198 211 202 174 146 149 126 108 48 110 123 124 104 112 121 119 83 81 75 71 58 68 78 74 93 99 83 19 55 50 63 53 52 30
74 157 78 68 317 298 126 223 145 247 277 148 187 198 230 255 224 263 263 266 285 312 327 302 295 244 267 249 187 262 332 88 8 235 180 67 95 266 243 252 77 67 14 41 64 215 223 238 248 234 206 189 181 190 200 217 174 140 121 159 190 186 212 148 120 130 145 124 135 114 108 102 115 106 83 72 79 80 80 86 73 96 88 67 54 68 54
3 23 109 122 206 270 89 198 242 204 196 267 234 213 230 260 246 248 262 284 285 264 278 265 244 232 269 300 326 333 360 35 220 268 79 278 214 263 7 77 275 194 135 271 258 255 264 255 242 234 193 179 169 170 176 197 185 139 147 155 165 189 180 125 116 138 174 141 113 112 112 103 111 113 105 81 61 65 80 81 74 86 97 102 102 78 62
169 254 98 140 231 212 189 254 285 295 255 223 269 297 283 278 336 317 297 253 243 326 313 328 341 351 343 297 118 240 261 300 282 291 180 211 36 41 13 36 296 259 179 161 230 223 234 248 232 198 181 167 158 159 171 179 136 127 140 143 152 140 138 115 124 144 141 128 147 123 107 111 102 90 93 104 96 59 76 88 92 87 93 91 81 76 85
177 127 168 216 218 229 250 262 21 325 287 291 288 296 326 349 315 287 287 287 305 291 263 212 218 104 271 266 312 323 293 322 125 258 9 30 168 224 146 218 317 314 262 181 218 210 222 235 208 142 140 145 165 166 176 168 155 158 157 162 162 162 146 139 157 163 153 148 118 118 131 116 110 105 95 85 87 65 50 100 97 92 102 107 105 96 90
119 325 334 226 333 307 261 271 15 276 310 321 338 316 331 316 304 291 258 293 284 326 358 14 345 119 247 48 306 336 271 302 196 332 58 271 227 261 65 348 231 193 253 234 216 247 239 199 134 129 148 153 164 159 156 156 151 164 154 137 135 138 143 163 161 138 154 159 147 159 141 116 124 130 133 131 140 134 81 70 88 101 90 106 114 113 112
258 168 238 179 177 226 40 332 305 309 313 307 303 301 336 307 274 283 269 280 336 35 38 53 292 48 3 10 34 316 280 312 360 337 188 240 206 95 180 228 241 214 258 265 238 252 204 173 142 133 143 167 171 172 159 151 160 166 158 141 138 130 147 148 114 128 150 150 134 130 172 187 175 129 118 113 107 92 72 32 26 81 106 97 105 116 121
137 240 262 277 230 219 221 240 247 229 245 260 278 251 271 278 278 276 291 25 49 61 328 268 55 36 57 299 244 252 299 338 266 26 30 311 123 359 250 226 273 275 251 270 279 147 157 182 159 157 162 167 175 166 146 146 157 151 154 161 159 154 150 117 104 107 116 134 156 163 127 120 121 111 114 103 91 79 73 27 344 48 77 84 82 89 109